YAOGAN-22

Last updated on Tue Sep 22 2026 00:02:59 GMT+0000 (Coordinated Universal Time)

1 40275U 14063A 26264.39012280 -.00000001 00000+0 12120-3 0 9997 2 40275 100.7872 57.3271 0006089 338.6706 21.4151 13.15533525572467
UTC large
Height (km)
Speed (km/s)
/
Latitude / Longitude
Inclination (degrees)
Orbital Period (minutes)
Azimuth
Elevation
Range (km)
Doppler Factor

Next 0 passes for location: London (51.5072 / 0.1276)

No passes found over London.
YAOGAN-22